OBJECT C, 60014

Orbit data source: Space-Track

You're viewing an Uncataloged Satellite

Recently launched and/or uncataloged satellites may have evolving metadata. Metadata may include but not limited to: Owner, Maufacturer, Bus, Motor, and Mission.

OBJECT C, 60014 is a satellite owned by Tsinghua (CN) in SSO that was launched on Thu, 06 Jun 2024 UTC via a GUSHENXING 1 launch vehicle from the Jiuquan Satellite Launch Center, China (JSC). Unknown objects in Earth's orbit typically refer to objects detected orbiting the Earth but have not yet been identified or cataloged. These objects could be anything from previously untracked satellites, spent rocket stages, debris from satellite collisions, or even natural meteoroids temporarily captured by Earth's gravity.

Loading next visibility...
Identifier
60014, 2024-110C
Orbit
SSO
Last TLE update
7 hours ago
Origin
Manufacturer
Tsinghua
Mission
Operational spacecraft
Bus & Motor
NAXING, Unknown motor
Mass
20 kg wet, 20 kg dry
Launch date (UTC)
2024-06-06 (1 year ago)
Launch vehicle
GUSHENXING 1
Launch site
Jiuquan Satellite Launch Center, China (JSC)
Object type
Unknown
Shape & HBR
Unknown
Radar Cross Section
Large (>1 m²)

Expand to show TLE details & history

TLE from 7 hours ago
0 OBJECT C
1 60014U 24110C   25167.53949988  .00000896  00000-0  83390-4 0  9995
2 60014  97.5785 249.4570 0010741 301.4487  58.5685 14.96700358 56152
Epoch: 2025-06-16T12:56Z
TLE epoch observation values (Epoch: 2025-06-16T12:56:52.789Z)
Latitude
0.00003°
Longitude
150.18825°
Altitude
576.263 km
Speed
7.575 km/s
True Right ascension
16h 37m 49s
True Declination
0° 00' 00"
Sunlit
Object was in full shadow at epoch
Visualization orbit readout
Latitude
58.06651°
Longitude
138.20032°
Altitude
590.446 km
Speed
7.569 km/s
Apparent Right ascension
17h 14m 57s
Apparent Declination
12° 34' 53"
Sunlit
Object is in daylight
Visualization observer readout
Local Sidereal Time
06:18:28
Azimuth
19.138° NNE
Elevation
-35.467°
Doppler factor
1
Orbital elements
Apogee altitude
581.572 km
Perigee altitude
566.637 km
Semi-major axis
6,952.241 km
Eccentricity
0.00107
Inclination
97.5785°
RAAN
249.457°
Arg. of periapsis
301.4487°
True anomaly
Unknown
Mean anomaly
58.5685°
Eccentric anomaly
Unknown
Mean motion
3.74417 °/min
Orbital period
96.15 mins
BSTAR
0.00008339
Loading maneuver chart data...
Loading SW <> Apogee altitude chart data...
Loading historical data...
Loading historical data...
Loading historical data...
Loading historical data...
Loading historical data...
Loading historical data...
Loading historical data...
Other satellites on launch #110 in the year 2024 (2024-06-06 UTC)

OBJECT C Visibility forecast

Observer location: undefined°, undefined°

Span
Click to sort rows by Start time (UTC) header in descending order
Start Az.
Max El. time (UTC)
Max El. Az.
Max El.
End time (UTC)
End Az.
6 mins2025-06-17 05:07:39.127Z143.446° SSE2025-06-17 05:10:39.127Z72.484° E36.749°2025-06-17 05:13:39.127Z3.798° NNE
6 mins2025-06-17 18:24:39.127Z8.759° NNE2025-06-17 18:26:39.127Z350.785° N43.189°2025-06-17 18:30:39.127Z196.658° SSW
|